GEFSMW_con_probscp_288.txt.gz
Probability
0 0 0 0 0 0 0 0 0 1 3 5 6 6 6 6 6 5 6 6 5 4 3 3 3 3 2 2 3 3 2 1 0 0 0 0 0 0 0 0 1 2 3
0 0 0 0 0 0 0 0 0 1 3 5 6 6 6 6 5 5 5 5 5 4 4 3 3 2 1 1 3 3 2 1 1 0 0 1 1 1 1 1 1 2 2
0 0 0 0 0 0 0 1 1 2 3 5 6 6 6 5 4 4 4 4 4 5 4 3 2 1 0 1 2 3 3 2 2 1 1 2 2 2 2 2 3 3 3
0 0 0 0 0 1 1 2 3 3 4 5 6 6 6 4 3 3 3 3 3 4 4 3 2 1 0 1 2 2 3 3 3 2 2 3 3 3 3 3 3 3 3
1 2 2 1 1 2 3 3 3 3 4 6 6 6 6 4 3 3 3 3 4 4 4 3 3 1 0 1 1 1 1 2 3 3 3 4 4 4 4 4 3 3 3
3 4 3 3 3 3 3 3 3 4 4 5 6 6 5 4 3 3 3 3 4 4 4 4 3 2 1 1 0 0 0 2 4 4 4 5 5 6 6 5 4 4 4
4 4 4 3 4 4 3 2 3 4 4 3 4 5 4 3 3 2 2 2 2 2 3 3 3 2 1 0 0 0 0 2 3 4 4 5 6 7 7 7 6 5 5
4 4 3 3 3 3 3 3 3 3 2 1 1 2 3 2 1 1 1 1 0 0 1 1 2 2 1 0 0 0 0 2 3 4 4 5 7 8 8 8 8 6 5
4 4 3 3 2 2 3 3 3 3 2 1 1 1 1 1 0 0 0 0 0 0 0 1 1 1 1 0 0 1 1 2 4 5 6 7 8 8 9 9 8 6 6
4 5 4 3 1 1 2 3 3 3 3 3 3 2 1 0 0 0 0 0 0 0 0 1 1 1 1 1 1 2 3 4 5 7 8 9 9 9 9 9 9 8 8
4 5 6 4 2 1 2 3 3 3 4 5 5 3 2 1 1 1 0 0 0 0 1 2 3 3 3 3 3 4 6 7 8 9 10 10 10 11 10 10 10 10 10
4 5 6 5 3 2 3 3 3 4 5 5 5 4 3 3 2 2 1 0 0 1 2 4 6 6 6 6 6 7 9 10 10 11 11 11 11 12 12 11 10 10 10
4 4 4 3 3 3 3 3 4 5 6 7 6 5 4 3 3 3 2 1 1 2 3 5 6 7 7 8 8 8 10 10 10 10 10 11 11 12 12 12 10 10 10
6 6 5 3 3 3 3 4 5 6 7 8 8 7 6 6 6 6 5 4 4 4 5 6 6 7 8 9 8 8 9 9 9 9 9 10 11 12 12 12 12 11 9
7 8 8 7 6 5 5 5 5 6 8 9 9 9 10 11 11 11 9 9 8 8 8 8 8 8 9 9 9 8 8 8 8 8 9 10 10 11 10 11 12 10 8
8 9 10 11 10 8 8 7 7 8 10 11 11 12 14 16 16 16 14 13 12 12 11 10 9 9 9 8 7 8 9 9 8 8 10 11 10 10 8 7 7 6 5
8 9 11 12 11 9 9 11 11 11 13 13 14 15 18 19 19 18 17 15 14 13 12 11 10 10 9 7 5 6 9 11 11 11 12 12 11 11 10 8 6 4 3
8 9 10 10 10 9 10 12 13 14 15 17 18 20 22 22 21 20 19 16 14 13 13 12 11 10 9 7 5 5 8 12 13 13 14 14 13 12 13 13 13 9 5
6 7 9 9 9 11 13 14 16 17 18 19 21 23 24 24 22 20 19 17 15 13 13 13 12 11 10 8 6 4 7 11 13 13 14 14 13 10 9 13 15 13 10
3 5 8 9 9 13 17 19 20 20 20 20 22 24 25 23 20 18 18 17 15 14 13 12 12 11 11 9 6 3 6 10 13 13 12 11 8 5 5 8 11 12 11
4 7 10 10 11 15 20 22 22 21 21 21 22 24 23 21 18 16 15 14 14 13 12 11 11 11 10 8 5 2 4 8 11 12 11 9 5 2 2 5 7 7 7
9 10 12 12 12 15 19 21 21 20 22 23 23 23 22 20 17 14 12 10 10 10 10 8 9 9 9 6 4 2 2 4 8 11 12 9 4 1 0 2 4 3 2
11 11 12 12 12 14 16 18 18 20 23 25 24 22 20 18 16 13 10 8 8 9 8 6 6 7 7 6 4 3 2 2 5 9 9 6 3 1 1 1 1 1 1
11 11 11 12 14 15 16 16 18 21 23 24 22 20 17 16 15 13 10 8 9 9 8 5 4 4 5 4 4 3 3 3 3 5 5 4 3 2 2 2 2 2 2
10 11 11 12 14 16 16 18 21 23 23 21 19 17 16 16 15 13 9 7 8 8 6 4 3 3 3 2 2 2 3 3 2 3 5 5 5 5 4 3 3 3 3
10 11 11 12 14 15 16 18 22 23 22 20 17 16 16 16 16 14 9 4 4 4 3 2 2 3 2 1 0 1 1 2 1 2 5 7 7 7 6 4 3 3 3

GEFSMW_con_probscp_294.txt.gz
Probability
0 0 0 0 0 0 1 2 3 4 4 4 4 5 7 10 12 12 12 11 10 10 12 13 12 11 10 10 10 10 10 8 6 4 4 4 4 4 3 2 2 2 3
1 1 0 0 0 1 1 2 3 4 5 6 6 6 8 10 11 11 11 10 10 10 11 11 11 10 10 10 10 9 9 8 7 6 6 5 5 5 3 2 3 4 4
2 2 1 0 1 2 2 2 4 5 6 6 6 6 7 8 8 9 9 9 9 9 9 9 9 9 10 10 10 9 8 8 8 8 8 8 8 6 4 4 5 6 6
1 2 2 1 1 3 3 4 5 7 6 6 5 5 6 6 6 7 8 8 8 7 7 7 8 9 10 10 10 10 9 9 10 10 10 10 11 9 7 6 6 7 7
0 1 2 2 3 4 5 6 7 8 7 7 7 7 6 6 6 8 9 8 6 5 5 6 8 9 10 11 11 11 11 11 11 11 11 11 12 12 11 9 8 8 8
1 1 2 4 5 7 8 9 10 10 10 10 11 11 9 8 9 10 10 8 6 4 4 5 7 8 10 11 12 12 11 11 11 12 12 12 12 13 12 11 10 9 9
3 4 5 7 8 9 10 11 13 14 14 14 15 14 12 10 11 11 10 9 6 5 5 6 6 7 8 10 11 11 10 10 11 13 13 13 12 12 12 11 10 8 8
5 6 8 10 11 11 11 13 16 18 17 16 16 15 13 11 11 11 10 9 8 6 6 7 7 8 7 8 9 9 8 9 10 12 13 13 12 10 9 9 8 7 6
5 7 9 10 11 11 11 13 16 18 17 15 15 14 13 11 11 10 10 9 9 8 6 7 9 9 9 9 9 10 11 11 12 13 14 15 14 12 12 11 10 8 8
6 7 9 10 9 9 10 11 13 15 16 15 14 13 12 11 11 10 9 9 10 10 8 8 10 11 12 12 13 14 15 17 17 17 18 19 18 17 18 17 14 12 14
7 9 10 11 10 8 8 9 10 13 14 14 13 11 11 12 12 12 11 9 9 10 11 11 11 12 13 14 14 14 16 18 19 18 18 18 20 21 21 20 18 18 21
10 11 12 13 12 10 10 10 10 11 12 13 12 12 13 13 13 13 12 9 9 10 11 11 12 11 10 11 11 12 13 15 16 15 15 15 18 20 21 20 21 22 24
15 14 15 16 15 14 13 13 11 10 11 14 15 16 17 16 15 14 12 11 10 10 10 10 9 7 7 9 11 11 12 12 12 12 12 14 17 21 21 21 21 23 23
20 19 19 19 19 20 19 17 14 12 14 17 19 20 19 19 17 16 14 13 13 13 13 12 10 8 8 11 13 14 13 11 11 11 12 14 18 21 22 22 23 24 24
22 23 23 23 24 27 27 24 20 18 19 20 20 21 20 19 19 20 20 19 18 19 21 21 19 16 13 12 14 14 14 14 14 14 14 15 17 18 19 19 20 24 27
25 25 26 27 28 31 33 32 28 25 24 23 23 23 22 21 22 24 25 26 26 26 28 29 27 23 16 12 11 11 13 16 18 18 18 17 16 15 14 12 12 16 20
26 26 27 27 28 29 33 35 33 30 28 26 26 26 25 24 25 26 29 31 32 31 31 30 29 25 19 11 8 7 12 17 21 21 20 19 17 15 14 12 10 10 11
22 23 24 24 23 25 30 34 34 33 31 29 29 29 28 27 27 28 30 33 35 35 34 32 29 26 20 11 6 6 11 18 21 22 22 21 19 15 14 15 15 15 15
15 17 19 20 22 25 30 33 34 35 35 33 32 33 32 31 31 32 34 36 38 38 36 34 31 27 20 11 5 5 12 19 22 22 22 20 18 14 12 16 19 20 20
12 13 15 19 22 26 30 31 32 34 35 33 33 34 36 37 37 38 39 39 40 39 37 34 31 28 22 13 5 6 13 20 22 23 21 17 14 11 10 14 18 21 21
14 13 15 18 20 24 29 31 31 32 31 29 30 33 35 36 38 40 41 40 40 39 35 31 29 27 24 16 7 5 10 17 21 23 22 17 11 7 7 9 14 16 16
15 16 18 20 19 20 27 33 34 33 30 29 30 32 34 34 35 37 38 38 38 36 33 29 26 26 25 19 9 4 5 11 17 21 20 15 8 4 2 4 7 9 9
15 17 21 24 22 21 27 34 36 35 33 33 33 33 33 33 33 34 35 35 34 31 29 27 26 27 27 23 14 6 2 4 10 15 14 8 3 1 1 2 3 5 8
16 18 22 25 25 23 26 32 35 37 37 35 35 34 33 33 33 33 32 31 29 26 25 25 26 28 30 27 21 13 7 6 8 11 10 6 4 3 5 5 5 6 10
19 20 23 26 27 26 26 29 34 37 38 37 35 34 32 32 32 31 28 26 23 21 20 20 22 25 26 22 18 15 12 10 11 12 14 12 11 11 11 10 9 11 13
22 23 24 26 28 28 28 29 32 36 39 39 37 33 31 30 30 29 25 21 19 16 14 15 17 19 18 14 10 10 10 9 10 13 17 18 17 17 16 12 12 15 17

GEFSMW_con_probscp_300.txt.gz
Probability
10 7 4 5 7 9 10 8 6 8 9 9 7 5 5 7 8 8 8 8 7 7 7 5 5 7 10 11 11 12 13 14 15 14 12 13 15 16 17 15 12 12 12
11 9 7 7 9 11 11 9 8 9 10 10 8 7 8 9 9 9 10 9 8 8 8 6 6 8 10 11 11 12 13 15 15 14 12 11 13 14 14 14 14 14 16
11 10 10 10 11 14 14 11 11 11 12 11 10 9 11 11 10 10 12 11 9 9 8 7 7 9 10 11 11 12 14 15 16 14 12 11 12 11 10 11 14 17 20
11 11 12 12 13 15 15 14 15 16 14 14 12 12 12 11 10 13 15 14 10 8 8 9 10 11 10 10 11 12 13 15 15 15 14 13 13 12 11 10 13 17 21
13 15 15 15 14 14 14 18 21 21 18 15 14 14 13 12 12 16 19 16 11 9 9 12 14 13 11 10 11 12 13 15 16 16 16 15 16 16 15 13 13 16 20
16 18 20 20 18 16 17 22 27 26 22 18 17 17 15 14 15 18 20 18 14 13 14 16 18 17 14 12 13 15 17 18 18 19 18 16 17 18 17 15 13 14 17
17 20 23 25 24 22 23 29 34 31 25 21 21 21 20 18 19 19 19 18 18 18 19 21 21 20 18 17 18 19 21 22 22 21 20 19 18 17 16 15 12 12 13
17 21 24 24 26 27 30 36 40 35 27 24 25 28 26 23 21 20 18 18 18 20 22 23 22 22 21 22 22 22 23 24 25 24 23 21 18 17 16 16 14 12 12
18 21 23 23 25 29 34 40 42 38 32 28 28 30 28 25 23 22 20 19 19 20 23 24 23 22 22 23 23 22 22 24 26 26 25 22 19 16 16 18 19 16 14
21 23 23 22 23 28 34 39 42 40 36 31 28 27 26 26 25 25 25 24 23 23 25 26 25 25 23 23 21 19 20 23 25 25 23 20 18 16 16 21 24 23 20
23 24 24 23 23 26 32 37 39 39 36 32 28 27 26 26 28 29 30 30 29 29 30 31 30 28 25 23 20 18 18 21 22 21 20 19 19 18 18 22 25 26 25
23 24 25 26 28 29 33 35 36 36 36 35 33 32 30 29 29 32 34 35 35 34 34 34 34 30 26 23 21 20 20 20 20 18 18 19 20 21 21 20 21 23 24
27 27 29 32 35 37 37 38 37 37 38 40 39 38 35 32 32 34 38 39 37 35 34 33 32 30 26 23 23 24 22 22 21 19 18 19 20 21 20 19 19 20 22
36 36 38 38 39 41 42 41 41 41 42 44 44 44 41 38 36 37 39 39 37 33 32 32 31 29 28 26 26 26 24 23 23 22 21 21 21 20 19 19 20 21 22
42 44 46 43 42 43 43 43 43 45 46 47 48 48 46 43 39 38 39 39 37 33 32 32 31 30 28 25 25 26 24 23 24 24 24 23 22 20 18 17 19 20 20
42 44 46 46 45 45 46 46 47 50 52 50 50 49 46 42 39 38 39 39 38 35 33 33 33 32 27 20 19 22 23 23 24 26 26 25 23 21 18 15 14 13 13
41 42 43 45 46 46 49 52 54 56 57 53 50 47 43 40 39 39 39 40 39 37 35 34 34 33 27 17 13 16 20 23 25 27 27 26 25 23 21 17 13 11 9
44 44 43 45 45 45 49 55 57 57 58 56 53 48 45 42 40 40 41 41 41 39 37 37 37 35 28 18 12 13 18 23 26 27 27 28 26 23 22 21 19 15 13
43 44 45 47 49 48 49 53 54 54 56 58 58 53 50 48 46 44 44 43 42 41 40 41 41 37 30 20 12 13 20 25 26 27 26 26 24 20 18 20 22 21 19
39 41 44 48 51 52 52 51 50 51 54 57 57 55 54 53 52 52 50 46 44 42 42 43 43 39 32 22 12 12 20 25 25 25 25 22 18 14 12 16 20 21 21
34 36 40 44 48 51 52 50 47 48 50 50 51 53 53 51 51 54 54 51 46 43 41 40 39 37 34 25 13 9 15 20 22 22 21 17 12 8 7 10 16 17 17
30 31 35 41 44 47 49 47 45 47 47 46 46 50 50 45 44 50 54 52 47 42 39 36 35 36 35 28 15 6 6 11 15 17 16 12 6 3 2 5 9 11 11
29 29 33 38 42 44 45 45 45 46 46 46 46 48 46 41 42 48 50 48 44 40 36 35 36 37 37 32 18 5 2 3 8 11 10 6 3 1 0 1 3 5 7
29 30 32 35 38 42 43 44 44 45 46 46 46 45 43 42 44 47 46 42 40 38 36 36 36 36 36 31 21 12 7 5 6 8 8 5 3 2 2 3 3 5 7
31 31 32 32 34 37 39 41 43 45 44 44 43 41 40 40 42 43 40 35 32 31 31 31 31 29 27 23 18 16 14 10 8 10 12 11 9 8 7 8 9 9 9
31 30 30 29 31 33 36 40 43 45 43 42 41 39 38 37 37 37 34 28 25 24 22 23 24 22 19 14 12 14 15 11 8 11 17 18 15 14 12 12 12 13 13

GEFSMW_con_probscp_306.txt.gz
Probability
4 4 3 3 3 2 2 3 3 3 3 4 4 4 4 5 5 4 3 4 5 6 6 5 4 3 1 0 1 2 1 2 3 3 3 3 4 4 4 3 3 4 5
6 5 4 4 4 4 4 3 3 3 4 4 5 4 4 5 5 4 4 4 4 5 5 4 2 1 1 1 2 2 2 3 3 4 4 4 4 4 3 3 3 3 4
7 6 5 5 6 6 5 4 4 4 4 4 5 6 6 6 6 6 5 5 4 4 4 3 1 1 2 3 3 3 4 4 4 4 5 5 4 3 3 3 3 3 3
5 6 7 8 8 7 7 6 6 6 5 5 6 6 6 6 6 6 5 4 4 4 4 3 3 3 4 5 4 4 4 4 4 4 4 5 5 4 3 3 3 3 3
4 6 8 10 10 9 9 9 8 6 6 6 7 7 6 5 4 4 4 4 4 5 5 5 5 4 4 4 4 4 4 4 3 3 3 4 4 4 4 3 3 2 2
5 6 8 10 12 12 13 13 11 9 8 8 9 8 6 4 3 5 5 4 4 4 5 6 6 4 3 3 4 3 3 3 3 3 2 3 3 3 3 3 2 2 2
6 7 9 11 12 14 16 17 16 13 10 9 10 9 7 5 5 7 7 6 4 4 4 6 6 5 4 4 4 3 2 2 2 2 1 1 2 1 2 3 3 2 2
9 9 10 11 13 15 17 19 18 15 12 10 9 9 8 7 7 9 10 9 6 4 3 5 7 6 4 3 2 2 1 2 2 1 0 0 1 1 2 3 3 3 3
14 13 11 11 12 13 15 17 19 17 14 11 9 8 7 7 8 11 13 11 6 3 3 5 7 6 5 4 3 2 2 2 2 1 0 0 1 2 3 4 4 4 3
17 15 12 10 10 11 12 16 19 19 16 12 9 7 8 8 9 11 12 10 6 4 4 6 6 6 5 6 6 5 4 3 2 1 1 1 2 3 4 5 6 5 5
17 16 12 9 10 11 13 17 19 20 18 15 11 10 10 11 11 11 11 9 8 6 6 6 6 5 6 7 8 7 7 6 5 4 4 4 4 5 5 6 6 6 6
17 14 11 10 10 13 17 21 23 23 21 18 15 13 13 14 15 15 13 11 10 8 7 6 6 6 7 8 8 8 9 9 9 9 7 7 7 7 6 6 6 6 6
14 12 12 13 14 16 20 23 26 26 23 20 17 16 16 16 16 16 16 14 12 9 8 8 9 9 9 9 10 10 9 9 10 10 9 9 9 8 7 6 6 6 6
10 11 13 15 15 17 20 23 25 25 25 23 20 18 17 17 15 14 15 14 13 13 12 13 13 12 11 11 12 12 12 11 10 10 10 10 10 9 8 7 6 6 6
9 10 13 14 15 18 20 22 24 25 26 25 22 19 18 17 14 13 13 13 15 17 19 20 19 16 14 15 15 16 16 15 12 11 12 11 11 9 8 6 4 3 3
13 13 14 16 17 19 22 24 26 27 27 26 22 20 19 18 17 15 14 15 17 21 24 26 25 22 19 18 16 16 17 17 15 14 13 13 12 9 6 3 2 1 1
19 18 17 19 20 20 22 25 27 28 28 26 23 22 23 22 20 19 18 17 19 21 24 27 28 25 21 17 14 13 15 16 15 14 14 13 12 8 5 3 2 0 0
21 19 18 19 19 19 22 24 26 29 30 27 26 26 26 24 22 21 19 18 18 20 23 26 28 26 21 16 11 10 12 14 13 11 11 12 11 8 6 6 5 4 2
16 15 15 16 16 16 20 24 26 28 31 31 30 28 26 25 23 21 20 19 19 19 21 24 25 25 22 17 11 8 10 12 11 10 10 10 10 7 6 8 9 8 7
11 11 13 15 14 14 17 22 25 27 31 34 32 28 25 23 22 21 20 19 19 18 18 19 22 23 21 17 11 6 8 12 12 12 10 8 8 6 4 7 10 10 9
7 8 12 15 16 15 16 19 22 26 30 31 28 26 24 22 20 20 19 18 17 16 16 17 20 22 21 18 10 5 8 12 12 12 10 8 6 3 2 4 7 8 7
5 7 10 14 17 17 15 16 19 23 26 26 24 24 24 23 21 21 20 19 17 16 16 17 19 21 22 18 10 4 4 7 8 9 9 7 4 1 0 1 4 5 5
5 6 8 11 15 15 12 12 15 18 20 22 23 24 25 25 25 24 23 22 20 18 17 17 18 20 20 18 12 5 2 2 4 5 5 4 1 0 0 0 1 2 4
6 7 7 8 9 9 8 9 12 15 17 20 23 23 24 26 25 24 24 22 21 20 18 17 17 18 17 15 12 8 4 3 2 2 1 1 0 0 0 0 0 1 3
9 8 7 5 4 4 5 8 10 13 15 18 21 23 23 23 22 20 19 18 17 18 17 15 15 16 15 11 9 7 6 5 3 1 1 0 0 0 0 0 0 0 1
11 10 8 5 3 3 5 7 10 12 14 15 19 23 22 21 19 16 14 12 11 13 14 13 13 13 13 10 5 3 4 4 3 2 2 1 0 0 0 0 0 0 0

GEFSMW_con_probscp_312.txt.gz
Probability
0 0 1 1 1 2 3 2 1 1 2 5 6 6 5 4 4 4 3 2 1 0 1 3 3 2 3 3 3 3 3 4 4 4 5 6 6 6 6 6 6 6 6
0 0 1 2 2 3 3 3 2 1 2 3 5 5 5 5 4 3 2 1 1 2 3 4 4 3 3 3 3 3 3 4 5 6 6 6 6 6 6 6 6 6 5
0 0 1 2 3 3 3 3 2 2 1 1 3 3 3 3 2 1 1 1 2 4 5 5 4 3 2 1 1 3 3 4 5 6 6 6 6 6 5 5 4 3 2
0 0 0 1 2 1 1 1 1 1 1 0 1 1 1 1 0 0 0 1 1 3 5 4 2 1 1 0 1 2 3 3 4 4 3 3 4 4 2 2 1 1 0
0 0 0 1 1 0 0 0 0 0 0 0 0 0 0 0 0 0 0 0 0 1 2 2 1 0 0 0 1 2 2 2 2 2 1 1 1 1 0 0 0 0 0
0 0 1 1 0 0 0 0 0 0 0 0 0 0 0 0 0 0 0 0 0 0 1 1 0 0 0 0 0 1 1 1 1 1 0 0 0 0 0 0 0 0 0
1 2 2 2 1 1 1 0 0 0 0 0 0 0 0 0 0 0 0 0 0 0 0 0 0 0 0 0 0 0 0 1 1 1 0 0 0 0 0 1 1 1 1
3 4 4 3 2 2 1 0 0 0 1 1 1 2 1 1 1 1 0 0 0 0 0 0 0 0 1 1 1 1 1 2 2 1 0 0 0 0 1 2 3 3 2
4 5 5 3 2 2 2 1 0 0 1 2 3 4 4 4 3 3 3 3 2 1 1 1 1 1 2 2 2 3 3 4 4 3 2 2 2 3 4 4 5 4 4
4 4 5 3 3 3 3 3 2 1 1 2 4 5 6 6 7 7 7 6 5 4 3 4 4 4 4 3 3 4 5 5 5 5 5 5 6 7 7 7 7 6 6
4 6 6 4 3 3 4 4 4 3 2 3 5 6 7 7 8 9 9 9 8 7 6 6 6 6 5 4 4 4 5 6 6 6 7 8 9 9 9 9 9 8 8
5 8 8 5 3 3 3 4 4 4 4 5 7 8 8 8 8 9 10 9 9 8 8 8 7 7 7 7 6 6 7 9 9 8 9 10 10 10 10 10 10 9 9
5 7 8 5 3 3 4 3 3 3 4 6 9 10 10 9 8 9 9 9 9 8 8 8 8 7 8 9 9 9 10 13 13 12 12 12 13 13 12 11 10 10 10
4 4 5 5 4 4 4 3 2 3 4 6 8 10 10 10 9 8 8 9 9 8 8 8 8 8 8 10 11 11 12 14 16 17 16 15 15 15 13 11 10 10 10
4 4 4 4 3 3 3 3 3 5 6 7 8 9 10 10 9 8 8 9 10 10 9 9 10 10 10 10 10 11 12 14 16 18 18 17 15 13 11 11 10 10 10
4 4 4 4 3 1 2 4 5 7 10 11 12 12 11 10 9 9 9 10 10 11 11 11 12 13 13 10 8 9 12 15 17 18 18 16 13 12 10 9 8 7 7
4 4 4 3 2 1 2 4 6 9 12 14 15 15 13 12 11 12 12 12 11 11 12 12 13 14 14 10 6 6 10 15 17 17 16 15 13 12 11 9 5 4 4
5 4 4 3 2 2 3 5 6 8 10 12 14 14 15 14 13 14 14 13 11 11 11 12 12 13 12 9 5 4 8 13 16 17 17 15 12 11 10 9 6 5 5
5 5 5 4 4 5 6 7 7 6 7 9 9 10 12 13 13 13 14 14 13 11 10 10 11 10 9 8 6 5 8 13 17 18 18 15 11 8 7 8 8 8 8
5 6 6 6 6 6 7 8 8 6 6 7 7 7 8 10 11 12 13 14 13 12 10 9 10 10 10 9 7 7 10 14 16 18 18 15 10 5 3 5 8 8 9
5 5 6 6 6 6 6 6 6 5 6 6 5 4 5 7 9 11 12 12 13 12 10 10 11 12 11 10 7 6 9 12 13 14 15 13 7 2 1 2 5 6 6
4 4 5 4 3 3 3 3 3 3 4 4 3 2 3 4 6 8 9 11 12 12 11 12 13 13 12 9 6 4 4 7 9 10 11 9 4 0 0 1 2 2 2
2 3 2 1 1 1 1 1 1 1 2 2 1 1 1 2 4 6 8 10 12 13 13 13 14 14 12 8 5 3 2 2 5 7 6 4 1 0 0 0 0 0 1
1 1 1 0 0 0 0 0 0 0 1 1 1 1 1 2 3 5 6 8 12 15 16 16 16 15 12 8 6 4 2 1 2 4 4 2 1 0 1 1 1 2 2
1 1 1 1 0 0 0 0 0 0 1 2 3 3 3 3 4 3 3 5 9 12 15 17 18 15 11 8 6 4 3 1 1 2 3 3 2 2 2 3 4 4 3
2 2 2 2 1 0 0 0 0 1 2 3 6 5 4 4 3 2 1 3 5 7 10 15 17 14 10 7 4 3 2 1 0 1 3 3 3 3 3 4 4 4 4